Location: *
(47.7167°N, 1.7333°W)
Time: 23:42:42
(UTC+00:00)

SL-16 R/B - Pass Details

Date: 09 April 2020
Orbit: 842 x 846 km, 71.0° (Epoch: 03 June)

Event Time Altitude Azimuth Distance (km) Brightness Sun altitude
Rises 23:12:15 0° 332° (NNW) 3,415 6.4 -32.9°
Reaches altitude 10° 23:14:43 10° 333° (NNW) 2,476 5.4 -33.0°
Enters shadow 23:18:51 50° 339° (NNW) 1,071 2.9 -33.2°
